SCP
0 0 0 0 0 0 0 0 0 0 0 0 0 0 0 0 0 0 0 0 0 0 0 0 0 0 0 0 0 0 0 0 0 0 0 0 0 0 0 0 0 0 0 0 0
0 0 0 0 0 0 0 0 0 0 0 0 0 0 0 0 0 0 0 0 0 0 0 0 0 0 0 0 0 0 0 0 0 0 0 0 0 0 0 0 0 0 0 -0 -0
0 0 0 0 0 0 0 0 0 0 0 0 0 0 0 0 0 0 0 0 0 0 0 0 0 0 0 0 0 0 0 0 0 0 0 0 0 0 0 0 0 0 0 0 0
0 0 0 0 0 0 0 0 0 0 0 0 0 0 0 0 0 0 0 0 0 0 0 0 0 0 0 0 -0 0 0 0 0 0 0 0 0 0 0 0 0 0 -0 0 0
0 0 0 0 0 0 0 0 0 0 0 0 0 0 0 0 0 0 0 0 0 0 0 0 0 0 0 0 0 0 0 0 0 0 0 0 0 0 0 0 0 0 0 0 0
0 0 0 0 0 0 0 0 0 0 1 0 0 0 0 0 0 0 0 0 0 0 0 0 0 0 0 0 0 0 0 0 0 0 0 0 0 0 0 0 0 0 0 0 0
0 0 0 0 0 0 0 0 0 0 1 0 0 0 0 0 0 0 0 0 0 0 0 0 0 0 0 0 0 0 0 0 0 0 0 0 0 0 0 0 0 0 0 0 0
0 0 0 0 0 0 0 0 0 0 0 0 0 0 0 0 0 0 0 0 0 0 0 0 0 0 0 0 0 0 0 0 0 0 0 0 -0 0 0 0 0 0 0 0 0
0 0 0 0 0 0 0 0 0 1 0 0 0 0 0 0 0 0 0 0 0 0 0 0 0 0 0 0 0 0 0 0 0 0 0 0 -0 0 0 0 0 0 0 0 0
0 0 0 0 0 0 0 1 0 0 0 0 0 0 0 0 0 0 0 0 0 0 0 0 0 0 0 0 0 0 0 0 0 0 0 0 0 0 0 0 0 0 0 0 0
0 0 0 0 0 0 1 1 0 0 0 0 0 0 0 0 0 0 0 0 0 0 0 0 0 0 0 0 0 0 0 0 0 0 0 0 0 0 0 0 0 0 0 0 0
0 0 0 0 0 0 0 0 0 0 0 0 0 0 0 0 0 0 0 0 0 0 0 0 0 0 0 0 0 0 0 0 0 0 0 0 0 0 0 -0 -0 0 0 -0 0
0 0 0 0 0 1 0 0 0 0 0 0 0 0 0 0 0 0 0 0 0 0 0 0 0 0 0 0 0 0 0 0 0 0 0 0 0 -0 0 0 0 0 0 -0 -0
0 0 0 0 0 0 0 0 0 0 0 0 0 0 0 0 0 0 0 0 0 0 0 0 0 0 0 0 0 0 0 0 0 0 0 0 0 0 0 0 0 0 0 0 0
0 0 0 0 0 0 0 0 0 0 0 0 0 0 0 0 0 0 0 0 0 0 0 0 0 0 0 0 0 0 0 0 0 0 0 0 0 -0 0 0 0 0 0 0 0
0 0 0 0 0 0 0 0 0 0 0 0 0 0 0 0 0 0 0 0 0 0 0 0 0 0 0 0 0 0 0 0 0 0 0 0 0 0 0 0 0 0 0 0 0
0 0 0 0 0 0 0 0 0 0 0 0 0 0 0 0 0 0 0 0 0 0 0 0 0 0 0 0 0 0 0 0 0 0 0 0 0 0 0 0 0 0 0 0 0
0 0 0 0 0 0 0 0 0 0 0 0 0 0 0 0 0 0 0 -0 0 0 0 0 0 0 0 0 0 0 0 0 0 0 0 0 0 0 0 -0 0 0 0 0 0
0 0 0 0 0 0 0 0 0 0 0 0 0 0 0 0 0 0 0 0 -0 0 0 0 0 0 0 0 0 0 0 0 0 0 0 0 0 0 0 0 0 0 0 0 0
0 0 0 0 0 0 0 0 0 0 0 0 0 0 0 0 0 0 0 -0 -0 0 0 0 0 0 0 0 0 0 0 0 0 0 0 0 0 0 0 0 0 0 0 0 0
0 0 0 0 0 0 0 0 0 0 0 0 0 0 0 0 0 0 -0 -0 -0 0 0 0 0 0 0 0 0 0 0 0 0 0 0 0 0 0 0 0 0 0 0 0 0
0 0 0 0 0 0 0 0 0 0 0 0 0 0 0 0 0 0 0 0 0 0 0 0 0 0 0 0 0 0 0 0 0 0 0 0 0 0 -0 0 0 0 0 0 0
0 0 0 0 0 0 0 0 0 0 0 0 0 0 0 0 0 0 0 0 0 0 0 0 0 0 0 0 0 0 0 0 0 0 0 0 0 0 0 0 0 0 0 0 0
0 0 0 0 0 0 0 0 0 0 0 0 0 0 0 0 -0 0 0 0 0 0 0 0 0 0 0 0 0 0 0 0 0 0 0 0 0 0 0 0 0 0 0 0 0
0 0 0 0 0 0 0 0 0 0 0 0 0 0 0 -0 -0 -0 0 0 0 0 0 0 0 0 0 0 0 0 0 0 0 0 0 0 0 0 0 0 0 0 0 0 0
0 0 0 0 0 0 0 0 0 0 0 0 0 0 0 0 -0 -0 -0 0 0 0 0 0 0 0 0 0 0 0 0 0 0 0 0 0 0 0 0 0 0 0 0 0 0
0 0 0 0 0 0 0 0 0 0 0 0 0 0 0 0 0 0 0 -0 -0 0 0 0 0 0 0 0 0 0 0 0 0 0 0 0 0 0 0 0 0 0 0 0 0
Wind_Speed_500mb
83 75 73 65 62 60 57 57 65 61 59 54 57 54 50 49 49 50 54 44 39 22 34 30 24 27 33 22 17 10 4 6 6 5 11 3 7 10 15 32 15 17 25 28 62
81 80 75 70 64 61 62 58 61 62 60 57 59 57 52 49 49 59 62 48 43 32 38 37 30 22 22 4 15 5 5 9 13 11 4 16 3 18 11 18 9 17 21 56 68
86 85 77 72 69 63 62 61 57 66 60 59 58 59 56 49 42 62 60 54 48 44 34 44 36 26 20 17 11 7 8 7 9 15 7 12 4 7 26 4 21 36 44 71 71
86 84 81 74 71 67 61 61 59 64 62 60 60 61 59 53 22 35 62 59 58 51 38 39 46 27 17 24 18 9 15 13 8 11 4 7 6 5 21 6 18 31 41 65 72
83 88 84 77 74 68 65 58 58 61 62 60 62 60 63 56 60 9 40 63 61 48 53 45 47 29 9 22 26 17 12 19 38 21 17 10 14 12 20 10 18 38 50 58 66
88 87 87 81 75 71 67 60 57 58 68 61 61 64 65 45 65 21 18 53 69 64 56 52 33 42 16 14 33 18 21 28 40 29 15 10 12 7 16 24 23 46 53 57 58
93 90 93 89 76 74 68 60 58 57 68 60 57 60 61 66 18 63 51 36 65 71 68 65 41 45 12 5 21 28 14 27 22 24 9 5 12 13 28 25 42 49 52 56 61
94 88 90 87 79 75 68 60 57 56 60 61 58 61 35 52 40 36 50 56 38 61 65 65 54 46 19 11 16 17 3 22 10 15 10 19 14 26 37 29 46 55 58 59 59
98 91 91 83 79 76 69 60 54 53 54 60 50 56 23 33 62 47 45 55 51 60 69 56 51 21 15 13 6 14 15 30 9 28 9 13 12 23 38 43 43 55 57 58 57
103 99 91 89 82 74 66 59 51 49 49 49 44 28 28 50 65 66 51 57 50 57 60 48 35 14 9 20 32 22 34 15 22 12 12 13 25 15 12 42 60 54 57 61 62
109 100 92 91 83 75 68 61 46 32 68 73 57 26 15 31 56 65 72 57 44 44 32 43 21 39 56 42 13 23 20 16 12 15 16 24 27 26 42 21 31 44 65 69 71
113 100 95 91 84 79 78 82 85 24 41 66 22 69 22 56 33 52 48 42 38 33 32 14 43 53 32 24 19 30 27 22 6 11 16 14 32 19 27 41 47 54 49 71 72
110 102 99 91 84 79 92 88 80 41 16 51 59 54 46 44 26 54 53 50 32 52 51 34 58 39 41 30 34 24 37 27 19 10 6 1 18 12 18 54 61 67 68 65 74
108 106 100 92 81 88 89 83 75 51 8 10 34 25 49 34 10 31 57 39 23 45 47 37 34 43 46 48 34 42 31 29 20 16 9 5 11 10 15 32 30 67 76 82 80
111 109 106 103 83 97 94 83 74 41 13 16 24 24 44 31 32 30 52 32 19 16 22 39 44 51 44 67 58 31 22 12 13 13 12 11 7 13 8 15 19 46 71 88 84
116 113 103 96 80 89 85 83 71 10 16 14 27 33 37 42 14 19 22 35 17 22 44 40 39 32 41 35 45 17 18 11 7 6 11 21 23 10 11 16 13 27 57 71 86
119 113 112 106 91 95 93 79 16 14 3 15 17 31 46 28 37 17 23 25 17 13 25 23 39 21 35 33 27 27 30 6 6 7 12 12 17 27 14 17 15 24 43 41 49
117 108 107 99 95 99 95 21 12 10 13 5 14 30 42 22 26 31 28 24 27 18 12 33 21 44 32 39 27 53 40 15 25 15 8 11 19 13 33 59 36 14 15 24 28
111 103 93 80 95 98 72 26 14 14 16 22 21 22 26 30 13 27 33 36 31 38 12 19 13 27 46 21 45 37 38 13 14 4 7 10 12 20 18 19 33 36 27 28 25
105 88 81 84 91 93 28 16 8 9 16 15 12 12 18 30 25 34 27 27 23 33 30 10 8 39 9 23 28 37 35 15 3 13 11 9 12 16 20 25 19 23 42 38 27
85 46 70 85 90 60 19 10 8 9 15 14 11 12 9 12 24 21 23 9 37 30 40 17 8 19 24 27 40 11 28 10 12 10 11 5 15 17 25 34 33 23 42 40 39
44 11 86 90 18 10 9 16 11 11 7 6 7 13 12 9 6 1 16 16 47 39 25 35 10 32 56 5 11 12 34 12 22 13 5 3 12 1 20 22 38 38 43 40 32
36 25 75 79 13 9 8 10 10 8 8 7 5 4 5 14 6 11 13 18 24 31 29 17 9 24 11 7 7 25 14 36 8 8 12 10 12 10 3 15 48 50 42 40 39
34 11 14 32 4 13 12 9 8 5 7 9 8 7 9 8 7 13 10 5 8 43 51 18 12 27 39 54 59 56 55 55 31 11 15 16 9 8 7 16 22 50 53 47 36
19 9 16 23 11 19 10 13 11 10 5 13 3 11 13 10 8 9 9 6 3 21 21 9 12 10 6 15 37 35 43 22 40 39 25 14 13 13 16 18 42 67 57 46 36
20 20 14 19 39 25 20 16 31 11 16 11 10 19 14 11 11 12 10 7 4 11 22 10 6 4 9 20 38 29 45 44 42 36 10 12 14 11 30 14 24 55 55 49 44
29 43 35 29 18 20 24 17 33 17 14 20 24 10 21 20 13 16 11 18 11 6 14 10 7 19 16 8 24 12 51 56 52 45 55 34 33 15 12 18 47 65 64 54 46
Wind_Direction_500mb
235 234 234 235 231 233 233 225 220 218 220 216 217 216 216 217 215 215 215 219 211 210 207 212 193 209 206 321 314 279 67 190 164 59 280 274 124 138 138 138 160 183 171 185 169
237 233 231 232 230 231 232 229 219 218 217 216 213 214 212 217 219 224 218 210 203 205 204 201 186 191 142 295 296 269 153 237 178 155 244 311 153 142 136 131 111 150 169 163 170
237 232 229 228 229 228 230 229 222 215 216 216 213 214 214 214 224 234 220 211 201 199 208 209 186 179 122 162 264 285 213 283 231 199 327 311 177 156 149 201 193 172 160 169 177
232 233 228 226 228 226 228 228 224 213 214 216 213 210 213 207 224 251 230 209 202 201 207 212 213 228 154 149 187 280 272 269 258 220 238 313 317 183 183 206 214 195 185 176 184
228 231 229 225 225 223 224 227 224 215 210 212 211 205 206 198 211 226 206 205 200 201 206 211 203 209 176 143 130 270 273 276 266 248 236 275 270 232 227 192 194 187 180 185 191
227 225 229 225 221 220 220 223 220 214 208 209 208 206 206 218 212 197 142 189 200 201 198 210 213 204 236 169 130 224 257 253 253 256 244 191 252 211 241 202 180 183 188 192 197
228 227 222 223 218 217 216 220 217 212 207 206 207 205 205 218 211 214 232 193 202 205 196 204 205 199 211 177 187 217 319 275 235 235 242 231 278 230 219 202 191 194 199 201 205
224 223 215 217 214 214 212 216 213 208 206 204 204 202 220 225 209 201 221 223 215 215 211 206 206 208 185 208 143 141 123 266 241 186 227 161 258 237 222 203 200 200 206 208 210
219 214 214 214 210 209 207 210 207 202 202 202 199 208 215 206 210 211 203 211 212 213 218 210 206 185 152 151 103 152 210 223 239 203 156 180 263 246 232 208 207 207 209 215 218
215 214 213 211 205 202 200 200 196 196 194 194 207 190 228 211 221 210 211 203 197 208 214 216 198 191 170 176 197 167 200 213 204 210 207 206 242 276 269 217 222 214 216 218 223
212 211 207 205 199 194 189 181 176 191 195 188 200 194 208 187 198 210 212 208 200 197 208 180 196 198 201 194 186 166 179 183 207 200 177 224 242 232 252 239 238 235 229 225 227
210 207 202 197 193 189 188 185 184 202 190 202 219 203 200 190 180 197 200 191 199 219 200 175 210 207 195 199 180 183 175 212 244 213 181 229 246 237 244 256 255 249 242 229 232
204 199 195 189 185 186 191 193 181 156 152 209 210 200 201 192 197 194 190 196 218 224 198 207 208 193 192 193 197 200 188 188 200 161 183 121 273 225 236 246 249 249 247 236 230
193 191 187 179 180 183 192 190 183 166 95 229 202 218 192 178 233 190 192 199 222 214 203 227 213 191 187 197 191 214 204 197 186 160 200 179 276 256 227 239 233 236 238 237 232
186 185 179 182 176 182 184 182 177 176 189 192 170 199 189 184 144 205 206 202 208 283 193 197 180 184 191 193 187 213 145 159 180 180 133 177 264 268 213 257 236 235 236 239 236
182 178 173 172 177 177 176 173 173 163 220 164 148 176 164 199 198 131 170 200 201 249 264 202 205 176 203 192 188 148 111 71 95 66 249 174 200 252 210 210 242 239 243 240 238
177 173 174 171 171 170 169 161 166 197 292 169 171 177 181 181 203 176 171 174 178 197 224 181 182 169 160 171 184 173 163 186 146 187 230 170 191 234 237 244 228 250 241 238 237
171 169 172 172 172 167 164 159 190 174 188 162 157 173 192 168 205 198 195 195 213 285 206 179 187 177 175 190 179 187 185 171 194 192 200 123 223 244 218 244 234 232 212 196 208
164 165 166 169 175 168 159 193 178 179 152 150 136 174 190 194 146 190 202 199 190 221 227 180 212 190 178 173 167 194 208 175 98 41 87 212 279 306 233 247 225 223 196 201 198
156 158 161 169 173 170 172 181 144 155 125 157 141 166 184 194 184 185 189 187 179 208 224 254 142 192 173 149 189 185 177 177 19 144 215 247 281 228 204 201 205 205 205 208 209
146 148 162 167 170 160 196 158 170 176 154 152 151 154 171 156 182 188 202 187 188 194 202 257 205 169 155 198 176 151 187 201 126 165 167 177 249 208 204 196 196 193 198 199 202
136 128 161 166 159 170 140 161 168 153 124 113 114 118 152 147 120 156 208 246 194 185 198 217 257 172 188 31 170 182 182 186 198 212 214 209 272 229 249 168 164 185 185 181 191
121 113 163 167 166 141 157 144 151 132 151 121 110 108 125 147 126 195 210 279 221 201 180 183 229 159 150 359 23 184 183 192 110 94 193 145 262 349 235 166 171 170 176 168 163
126 124 121 172 185 128 127 138 117 110 115 116 128 133 117 145 184 172 166 284 300 214 180 204 211 198 188 188 182 187 189 193 188 178 186 219 296 321 271 165 158 170 166 162 160
123 119 164 169 189 152 103 147 135 148 125 154 167 197 157 147 130 195 180 215 264 271 201 165 223 214 325 138 189 191 188 182 201 212 198 192 199 255 225 197 182 173 169 174 177
116 144 135 135 130 142 167 197 178 182 151 209 185 189 187 160 162 184 162 198 164 299 203 153 242 124 346 158 181 190 196 200 210 208 242 184 226 226 216 217 177 179 181 184 186
121 138 129 144 142 147 198 166 198 124 226 181 188 148 206 207 158 88 124 165 140 114 357 177 197 173 207 185 134 179 197 196 205 207 213 207 213 154 175 199 202 195 196 193 196
Wind_Speed_850mb
83 75 73 65 62 60 57 57 65 61 59 54 57 54 50 49 49 50 54 44 39 22 34 30 24 27 33 22 17 10 4 6 6 5 11 3 7 10 15 32 15 17 25 28 62
81 80 75 70 64 61 62 58 61 62 60 57 59 57 52 49 49 59 62 48 43 32 38 37 30 22 22 4 15 5 5 9 13 11 4 16 3 18 11 18 9 17 21 56 68
86 85 77 72 69 63 62 61 57 66 60 59 58 59 56 49 42 62 60 54 48 44 34 44 36 26 20 17 11 7 8 7 9 15 7 12 4 7 26 4 21 36 44 71 71
86 84 81 74 71 67 61 61 59 64 62 60 60 61 59 53 22 35 62 59 58 51 38 39 46 27 17 24 18 9 15 13 8 11 4 7 6 5 21 6 18 31 41 65 72
83 88 84 77 74 68 65 58 58 61 62 60 62 60 63 56 60 9 40 63 61 48 53 45 47 29 9 22 26 17 12 19 38 21 17 10 14 12 20 10 18 38 50 58 66
88 87 87 81 75 71 67 60 57 58 68 61 61 64 65 45 65 21 18 53 69 64 56 52 33 42 16 14 33 18 21 28 40 29 15 10 12 7 16 24 23 46 53 57 58
93 90 93 89 76 74 68 60 58 57 68 60 57 60 61 66 18 63 51 36 65 71 68 65 41 45 12 5 21 28 14 27 22 24 9 5 12 13 28 25 42 49 52 56 61
94 88 90 87 79 75 68 60 57 56 60 61 58 61 35 52 40 36 50 56 38 61 65 65 54 46 19 11 16 17 3 22 10 15 10 19 14 26 37 29 46 55 58 59 59
98 91 91 83 79 76 69 60 54 53 54 60 50 56 23 33 62 47 45 55 51 60 69 56 51 21 15 13 6 14 15 30 9 28 9 13 12 23 38 43 43 55 57 58 57
103 99 91 89 82 74 66 59 51 49 49 49 44 28 28 50 65 66 51 57 50 57 60 48 35 14 9 20 32 22 34 15 22 12 12 13 25 15 12 42 60 54 57 61 62
109 100 92 91 83 75 68 61 46 32 68 73 57 26 15 31 56 65 72 57 44 44 32 43 21 39 56 42 13 23 20 16 12 15 16 24 27 26 42 21 31 44 65 69 71
113 100 95 91 84 79 78 82 85 24 41 66 22 69 22 56 33 52 48 42 38 33 32 14 43 53 32 24 19 30 27 22 6 11 16 14 32 19 27 41 47 54 49 71 72
110 102 99 91 84 79 92 88 80 41 16 51 59 54 46 44 26 54 53 50 32 52 51 34 58 39 41 30 34 24 37 27 19 10 6 1 18 12 18 54 61 67 68 65 74
108 106 100 92 81 88 89 83 75 51 8 10 34 25 49 34 10 31 57 39 23 45 47 37 34 43 46 48 34 42 31 29 20 16 9 5 11 10 15 32 30 67 76 82 80
111 109 106 103 83 97 94 83 74 41 13 16 24 24 44 31 32 30 52 32 19 16 22 39 44 51 44 67 58 31 22 12 13 13 12 11 7 13 8 15 19 46 71 88 84
116 113 103 96 80 89 85 83 71 10 16 14 27 33 37 42 14 19 22 35 17 22 44 40 39 32 41 35 45 17 18 11 7 6 11 21 23 10 11 16 13 27 57 71 86
119 113 112 106 91 95 93 79 16 14 3 15 17 31 46 28 37 17 23 25 17 13 25 23 39 21 35 33 27 27 30 6 6 7 12 12 17 27 14 17 15 24 43 41 49
117 108 107 99 95 99 95 21 12 10 13 5 14 30 42 22 26 31 28 24 27 18 12 33 21 44 32 39 27 53 40 15 25 15 8 11 19 13 33 59 36 14 15 24 28
111 103 93 80 95 98 72 26 14 14 16 22 21 22 26 30 13 27 33 36 31 38 12 19 13 27 46 21 45 37 38 13 14 4 7 10 12 20 18 19 33 36 27 28 25
105 88 81 84 91 93 28 16 8 9 16 15 12 12 18 30 25 34 27 27 23 33 30 10 8 39 9 23 28 37 35 15 3 13 11 9 12 16 20 25 19 23 42 38 27
85 46 70 85 90 60 19 10 8 9 15 14 11 12 9 12 24 21 23 9 37 30 40 17 8 19 24 27 40 11 28 10 12 10 11 5 15 17 25 34 33 23 42 40 39
44 11 86 90 18 10 9 16 11 11 7 6 7 13 12 9 6 1 16 16 47 39 25 35 10 32 56 5 11 12 34 12 22 13 5 3 12 1 20 22 38 38 43 40 32
36 25 75 79 13 9 8 10 10 8 8 7 5 4 5 14 6 11 13 18 24 31 29 17 9 24 11 7 7 25 14 36 8 8 12 10 12 10 3 15 48 50 42 40 39
34 11 14 32 4 13 12 9 8 5 7 9 8 7 9 8 7 13 10 5 8 43 51 18 12 27 39 54 59 56 55 55 31 11 15 16 9 8 7 16 22 50 53 47 36
19 9 16 23 11 19 10 13 11 10 5 13 3 11 13 10 8 9 9 6 3 21 21 9 12 10 6 15 37 35 43 22 40 39 25 14 13 13 16 18 42 67 57 46 36
20 20 14 19 39 25 20 16 31 11 16 11 10 19 14 11 11 12 10 7 4 11 22 10 6 4 9 20 38 29 45 44 42 36 10 12 14 11 30 14 24 55 55 49 44
29 43 35 29 18 20 24 17 33 17 14 20 24 10 21 20 13 16 11 18 11 6 14 10 7 19 16 8 24 12 51 56 52 45 55 34 33 15 12 18 47 65 64 54 46
Wind_Direction_850mb
235 234 234 235 231 233 233 225 220 218 220 216 217 216 216 217 215 215 215 219 211 210 207 212 193 209 206 321 314 279 67 190 164 59 280 274 124 138 138 138 160 183 171 185 169
237 233 231 232 230 231 232 229 219 218 217 216 213 214 212 217 219 224 218 210 203 205 204 201 186 191 142 295 296 269 153 237 178 155 244 311 153 142 136 131 111 150 169 163 170
237 232 229 228 229 228 230 229 222 215 216 216 213 214 214 214 224 234 220 211 201 199 208 209 186 179 122 162 264 285 213 283 231 199 327 311 177 156 149 201 193 172 160 169 177
232 233 228 226 228 226 228 228 224 213 214 216 213 210 213 207 224 251 230 209 202 201 207 212 213 228 154 149 187 280 272 269 258 220 238 313 317 183 183 206 214 195 185 176 184
228 231 229 225 225 223 224 227 224 215 210 212 211 205 206 198 211 226 206 205 200 201 206 211 203 209 176 143 130 270 273 276 266 248 236 275 270 232 227 192 194 187 180 185 191
227 225 229 225 221 220 220 223 220 214 208 209 208 206 206 218 212 197 142 189 200 201 198 210 213 204 236 169 130 224 257 253 253 256 244 191 252 211 241 202 180 183 188 192 197
228 227 222 223 218 217 216 220 217 212 207 206 207 205 205 218 211 214 232 193 202 205 196 204 205 199 211 177 187 217 319 275 235 235 242 231 278 230 219 202 191 194 199 201 205
224 223 215 217 214 214 212 216 213 208 206 204 204 202 220 225 209 201 221 223 215 215 211 206 206 208 185 208 143 141 123 266 241 186 227 161 258 237 222 203 200 200 206 208 210
219 214 214 214 210 209 207 210 207 202 202 202 199 208 215 206 210 211 203 211 212 213 218 210 206 185 152 151 103 152 210 223 239 203 156 180 263 246 232 208 207 207 209 215 218
215 214 213 211 205 202 200 200 196 196 194 194 207 190 228 211 221 210 211 203 197 208 214 216 198 191 170 176 197 167 200 213 204 210 207 206 242 276 269 217 222 214 216 218 223
212 211 207 205 199 194 189 181 176 191 195 188 200 194 208 187 198 210 212 208 200 197 208 180 196 198 201 194 186 166 179 183 207 200 177 224 242 232 252 239 238 235 229 225 227
210 207 202 197 193 189 188 185 184 202 190 202 219 203 200 190 180 197 200 191 199 219 200 175 210 207 195 199 180 183 175 212 244 213 181 229 246 237 244 256 255 249 242 229 232
204 199 195 189 185 186 191 193 181 156 152 209 210 200 201 192 197 194 190 196 218 224 198 207 208 193 192 193 197 200 188 188 200 161 183 121 273 225 236 246 249 249 247 236 230
193 191 187 179 180 183 192 190 183 166 95 229 202 218 192 178 233 190 192 199 222 214 203 227 213 191 187 197 191 214 204 197 186 160 200 179 276 256 227 239 233 236 238 237 232
186 185 179 182 176 182 184 182 177 176 189 192 170 199 189 184 144 205 206 202 208 283 193 197 180 184 191 193 187 213 145 159 180 180 133 177 264 268 213 257 236 235 236 239 236
182 178 173 172 177 177 176 173 173 163 220 164 148 176 164 199 198 131 170 200 201 249 264 202 205 176 203 192 188 148 111 71 95 66 249 174 200 252 210 210 242 239 243 240 238
177 173 174 171 171 170 169 161 166 197 292 169 171 177 181 181 203 176 171 174 178 197 224 181 182 169 160 171 184 173 163 186 146 187 230 170 191 234 237 244 228 250 241 238 237
171 169 172 172 172 167 164 159 190 174 188 162 157 173 192 168 205 198 195 195 213 285 206 179 187 177 175 190 179 187 185 171 194 192 200 123 223 244 218 244 234 232 212 196 208
164 165 166 169 175 168 159 193 178 179 152 150 136 174 190 194 146 190 202 199 190 221 227 180 212 190 178 173 167 194 208 175 98 41 87 212 279 306 233 247 225 223 196 201 198
156 158 161 169 173 170 172 181 144 155 125 157 141 166 184 194 184 185 189 187 179 208 224 254 142 192 173 149 189 185 177 177 19 144 215 247 281 228 204 201 205 205 205 208 209
146 148 162 167 170 160 196 158 170 176 154 152 151 154 171 156 182 188 202 187 188 194 202 257 205 169 155 198 176 151 187 201 126 165 167 177 249 208 204 196 196 193 198 199 202
136 128 161 166 159 170 140 161 168 153 124 113 114 118 152 147 120 156 208 246 194 185 198 217 257 172 188 31 170 182 182 186 198 212 214 209 272 229 249 168 164 185 185 181 191
121 113 163 167 166 141 157 144 151 132 151 121 110 108 125 147 126 195 210 279 221 201 180 183 229 159 150 359 23 184 183 192 110 94 193 145 262 349 235 166 171 170 176 168 163
126 124 121 172 185 128 127 138 117 110 115 116 128 133 117 145 184 172 166 284 300 214 180 204 211 198 188 188 182 187 189 193 188 178 186 219 296 321 271 165 158 170 166 162 160
123 119 164 169 189 152 103 147 135 148 125 154 167 197 157 147 130 195 180 215 264 271 201 165 223 214 325 138 189 191 188 182 201 212 198 192 199 255 225 197 182 173 169 174 177
116 144 135 135 130 142 167 197 178 182 151 209 185 189 187 160 162 184 162 198 164 299 203 153 242 124 346 158 181 190 196 200 210 208 242 184 226 226 216 217 177 179 181 184 186
121 138 129 144 142 147 198 166 198 124 226 181 188 148 206 207 158 88 124 165 140 114 357 177 197 173 207 185 134 179 197 196 205 207 213 207 213 154 175 199 202 195 196 193 196